Total_Precipitation_Accumulation
0.96 1.27 1.10 1.23 1.60 2.08 1.37 1.18 1.51 1.53 1.38 1.23 1.14 0.82 0.91 0.78 0.57 0.73 0.76 0.76 0.88 1.56
0.91 1.33 1.41 2.12 1.80 1.80 2.14 1.56 2.24 1.96 1.66 1.69 1.68 1.47 1.48 0.99 0.84 1.16 0.88 0.86 1.08 1.43
1.15 1.17 1.23 1.71 1.24 1.60 1.88 1.99 4.75 3.16 1.75 1.66 1.70 1.61 1.88 1.29 1.16 1.28 1.06 0.80 0.87 1.18
0.98 0.97 0.80 0.61 0.66 0.67 0.95 1.43 1.94 3.27 1.58 1.54 1.63 1.50 2.16 1.88 1.81 1.93 1.39 1.17 1.11 1.29
1.37 1.45 0.73 0.42 0.28 0.24 0.49 0.88 1.01 1.34 1.49 1.64 1.34 1.53 2.32 2.15 1.93 2.32 1.99 1.67 1.72 1.57
1.50 1.19 1.45 0.78 0.23 0.24 0.38 0.45 0.56 0.96 1.41 1.40 1.18 1.63 1.88 2.52 2.53 2.33 2.51 1.98 1.90 1.86
1.37 1.06 1.28 1.12 0.56 0.26 0.35 0.35 0.33 0.54 0.88 1.00 1.06 1.04 1.28 1.65 1.69 1.86 1.90 2.55 2.48 1.96
1.89 1.35 1.32 1.88 1.89 1.06 0.85 0.75 0.52 0.55 0.78 1.07 1.07 0.87 1.27 1.38 1.38 1.47 1.43 1.81 2.21 2.22
2.32 2.65 2.49 2.43 3.05 2.50 1.98 1.98 1.60 1.04 1.10 1.16 0.67 1.10 1.39 1.06 1.28 1.36 1.33 1.40 1.49 1.79
2.78 2.89 2.45 2.45 2.97 2.97 3.35 3.39 2.54 2.08 2.18 1.95 1.61 1.40 1.51 1.60 1.11 1.25 1.24 1.22 1.24 1.22
3.16 3.52 3.41 2.80 2.60 3.20 3.58 3.32 3.04 2.63 2.52 2.57 2.17 2.10 1.99 2.41 1.46 0.89 0.96 1.12 1.05 1.07
2.78 3.59 3.98 3.77 3.41 3.40 3.76 3.51 3.15 3.15 3.23 2.82 2.04 2.98 2.92 3.13 2.10 1.52 1.51 1.50 1.16 1.03
2.41 2.24 2.40 2.98 3.39 3.41 3.59 3.63 3.39 2.82 2.50 2.51 2.07 3.05 3.03 2.95 2.21 1.46 1.38 1.47 1.30 1.25
3.10 3.24 3.27 2.80 3.27 3.81 4.23 3.99 3.64 3.17 3.71 3.61 3.32 3.17 3.25 3.19 2.87 2.36 1.88 1.40 1.40 1.40